| time (UTC) | temp C | wind direction | speed KPH | gust KPH | rain 1hr cm | rain 24hr cm | rain mn cm | humidity % | barometer mb |
| 20260510130048 | 20 | 234 | 1.6 | 9.7 | 0.00 | 0.00 | 0.00 | 68 | 1010.8 |
| 20260510124546 | 20 | 253 | 3.2 | 8.0 | 0.00 | 0.00 | 0.00 | 69 | 1010.8 |
| 20260510123057 | 20 | 236 | 1.6 | 8.0 | 0.00 | 0.00 | 0.00 | 68 | 1010.8 |
| 20260510121542 | 19 | 219 | 1.6 | 6.4 | 0.00 | 0.00 | 0.00 | 70 | 1011.0 |
| 20260510120040 | 18 | 245 | 3.2 | 11.3 | 0.00 | 0.00 | 0.00 | 71 | 1011.1 |
| 20260510114539 | 18 | 248 | 1.6 | 8.0 | 0.00 | 0.00 | 0.00 | 71 | 1011.2 |
| 20260510113043 | 19 | 242 | 1.6 | 6.4 | 0.00 | 0.00 | 0.00 | 70 | 1011.2 |
| 20260510111538 | 19 | 248 | 0.0 | 1.6 | 0.00 | 0.00 | 0.00 | 70 | 1011.2 |
| 20260510110036 | 19 | 243 | 0.0 | 3.2 | 0.00 | 0.00 | 0.00 | 70 | 1011.3 |
| 20260510104533 | 18 | 237 | 1.6 | 3.2 | 0.00 | 0.00 | 0.00 | 71 | 1011.4 |
| 20260510103033 | 18 | 235 | 1.6 | 6.4 | 0.00 | 0.00 | 0.00 | 70 | 1011.5 |
| 20260510101531 | 19 | 232 | 1.6 | 6.4 | 0.00 | 0.00 | 0.00 | 72 | 1011.8 |
| 20260510100030 | 18 | 235 | 3.2 | 8.0 | 0.00 | 0.00 | 0.00 | 72 | 1011.8 |
| 20260510094529 | 18 | 243 | 1.6 | 6.4 | 0.00 | 0.00 | 0.00 | 71 | 1011.9 |
| 20260510093027 | 18 | 219 | 3.2 | 8.0 | 0.00 | 0.00 | 0.00 | 70 | 1012.1 |
| 20260510091526 | 18 | 236 | 0.0 | 3.2 | 0.00 | 0.00 | 0.00 | 72 | 1012.0 |
| 20260510090025 | 18 | 243 | 0.0 | 4.8 | 0.00 | 0.00 | 0.00 | 72 | 1012.1 |
| 20260510084524 | 18 | 241 | 1.6 | 4.8 | 0.00 | 0.00 | 0.00 | 70 | 1012.2 |
| 20260510083023 | 18 | 246 | 0.0 | 3.2 | 0.00 | 0.00 | 0.00 | 71 | 1012.3 |
| 20260510081520 | 18 | 238 | 1.6 | 4.8 | 0.00 | 0.00 | 0.00 | 72 | 1012.4 |
| 20260510080019 | 17 | 255 | 0.0 | 4.8 | 0.00 | 0.00 | 0.00 | 74 | 1012.7 |
| 20260510074515 | 17 | 241 | 0.0 | 3.2 | 0.00 | 0.00 | 0.00 | 74 | 1012.8 |
| 20260510073014 | 17 | 234 | 0.0 | 4.8 | 0.00 | 0.00 | 0.00 | 74 | 1012.8 |
| 20260510071514 | 17 | 242 | 0.0 | 1.6 | 0.00 | 0.00 | 0.00 | 75 | 1012.6 |
| 20260510070013 | 17 | 233 | 0.0 | 1.6 | 0.00 | 0.00 | 0.00 | 75 | 1012.5 |
| 20260510064510 | 17 | 232 | 0.0 | 1.6 | 0.00 | 0.00 | 0.00 | 76 | 1012.4 |
| 20260510063008 | 15 | 232 | 0.0 | 1.6 | 0.00 | 0.00 | 0.00 | 78 | 1012.6 |
| 20260510061506 | 15 | 231 | 0.0 | 0.0 | 0.00 | 0.00 | 0.00 | 80 | 1012.6 |
| 20260510060009 | 15 | 231 | 0.0 | 0.0 | 0.00 | 0.00 | 0.00 | 82 | 1012.5 |
| 20260510054603 | 13 | 232 | 0.0 | 0.0 | 0.00 | 0.00 | 0.00 | 87 | 1012.7 |
| 20260510053002 | 11 | 231 | 0.0 | 0.0 | 0.00 | 0.00 | 0.00 | 90 | 1012.7 |
| 20260510051502 | 11 | 231 | 0.0 | 0.0 | 0.00 | 0.00 | 0.00 | 90 | 1012.7 |
| 20260510050001 | 11 | 231 | 0.0 | 0.0 | 0.00 | 0.00 | 0.00 | 90 | 1012.8 |
| 20260510044603 | 11 | 232 | 0.0 | 0.0 | 0.00 | 0.00 | 0.00 | 90 | 1012.8 |
| 20260510043109 | 11 | 231 | 0.0 | 0.0 | 0.00 | 0.00 | 0.00 | 89 | 1012.7 |
| 20260510041600 | 11 | 231 | 0.0 | 0.0 | 0.00 | 0.00 | 0.00 | 90 | 1012.8 |
| 20260510040109 | 11 | 231 | 0.0 | 0.0 | 0.00 | 0.00 | 0.00 | 90 | 1013.1 |
| 20260510034555 | 11 | 231 | 0.0 | 0.0 | 0.00 | 0.00 | 0.00 | 89 | 1013.1 |
| 20260510033055 | 11 | 231 | 0.0 | 0.0 | 0.00 | 0.00 | 0.00 | 89 | 1013.1 |
| 20260510031557 | 11 | 231 | 0.0 | 0.0 | 0.00 | 0.00 | 0.00 | 89 | 1013.2 |
| 20260510030152 | 11 | 231 | 0.0 | 0.0 | 0.00 | 0.00 | 0.00 | 89 | 1013.3 |
| 20260510024550 | 11 | 232 | 0.0 | 0.0 | 0.00 | 0.00 | 0.00 | 89 | 1013.2 |
| 20260510023048 | 12 | 231 | 0.0 | 0.0 | 0.00 | 0.00 | 0.00 | 88 | 1013.4 |
| 20260510021548 | 12 | 232 | 0.0 | 0.0 | 0.00 | 0.00 | 0.00 | 88 | 1013.3 |
| 20260510020046 | 12 | 231 | 0.0 | 0.0 | 0.00 | 0.00 | 0.00 | 88 | 1013.2 |
| 20260510014545 | 12 | 231 | 0.0 | 0.0 | 0.00 | 0.00 | 0.00 | 88 | 1013.3 |
| 20260510013043 | 12 | 232 | 0.0 | 0.0 | 0.00 | 0.00 | 0.00 | 88 | 1013.4 |
| 20260510011541 | 12 | 231 | 0.0 | 0.0 | 0.00 | 0.00 | 0.00 | 87 | 1013.4 |
| 20260510010039 | 12 | 231 | 0.0 | 0.0 | 0.00 | 0.00 | 0.00 | 86 | 1013.6 |
| 20260510004537 | 12 | 231 | 0.0 | 0.0 | 0.00 | 0.00 | 0.00 | 86 | 1013.6 |
| 20260510003037 | 12 | 231 | 0.0 | 0.0 | 0.00 | 0.00 | 0.00 | 87 | 1013.7 |
| 20260510001535 | 12 | 232 | 0.0 | 1.6 | 0.00 | 0.00 | 0.00 | 87 | 1013.8 |
| 20260510000033 | 13 | 231 | 0.0 | 0.0 | 0.00 | 0.00 | 0.00 | 85 | 1013.8 |
| 20260509234534 | 13 | 231 | 0.0 | 0.0 | 0.00 | 0.00 | 0.00 | 84 | 1014.1 |
| 20260509233026 | 14 | 231 | 0.0 | 0.0 | 0.00 | 0.00 | 0.00 | 84 | 1014.2 |
| 20260509231524 | 14 | 231 | 0.0 | 0.0 | 0.00 | 0.00 | 0.00 | 82 | 1014.2 |
| 20260509230022 | 15 | 231 | 0.0 | 0.0 | 0.00 | 0.00 | 0.00 | 81 | 1014.1 |
| 20260509224520 | 15 | 231 | 0.0 | 0.0 | 0.00 | 0.00 | 0.00 | 81 | 1014.3 |
| 20260509223022 | 15 | 231 | 0.0 | 0.0 | 0.00 | 0.00 | 0.00 | 79 | 1014.4 |
| 20260509221520 | 15 | 232 | 0.0 | 0.0 | 0.00 | 0.00 | 0.00 | 78 | 1014.5 |
| 20260509220017 | 15 | 232 | 0.0 | 1.6 | 0.00 | 0.00 | 0.00 | 79 | 1014.6 |
| 20260509214513 | 15 | 202 | 0.0 | 0.0 | 0.00 | 0.00 | 0.00 | 75 | 1014.5 |
| 20260509213015 | 16 | 204 | 0.0 | 0.0 | 0.00 | 0.00 | 0.00 | 75 | 1014.5 |
| 20260509211514 | 16 | 204 | 0.0 | 0.0 | 0.00 | 0.00 | 0.00 | 72 | 1014.5 |
| 20260509210015 | 16 | 204 | 0.0 | 0.0 | 0.00 | 0.00 | 0.00 | 70 | 1014.5 |
| 20260509204511 | 17 | 204 | 0.0 | 0.0 | 0.00 | 0.00 | 0.00 | 68 | 1014.6 |
| 20260509203010 | 18 | 204 | 0.0 | 0.0 | 0.00 | 0.00 | 0.00 | 65 | 1014.5 |
| 20260509201510 | 18 | 111 | 0.0 | 0.0 | 0.00 | 0.00 | 0.00 | 64 | 1014.5 |
| 20260509200010 | 18 | 111 | 0.0 | 1.6 | 0.00 | 0.00 | 0.00 | 62 | 1014.4 |
| 20260509194509 | 18 | 111 | 0.0 | 1.6 | 0.00 | 0.00 | 0.00 | 60 | 1014.3 |
| 20260509193012 | 18 | 117 | 0.0 | 0.0 | 0.00 | 0.00 | 0.00 | 61 | 1014.2 |
| 20260509191509 | 19 | 117 | 0.0 | 0.0 | 0.00 | 0.00 | 0.00 | 61 | 1014.2 |
| 20260509190008 | 20 | 117 | 0.0 | 0.0 | 0.00 | 0.00 | 0.00 | 59 | 1014.2 |
| 20260509184511 | 20 | 117 | 0.0 | 1.6 | 0.00 | 0.00 | 0.00 | 57 | 1014.1 |
| 20260509183007 | 21 | 117 | 0.0 | 1.6 | 0.00 | 0.00 | 0.00 | 55 | 1014.2 |
| 20260509181508 | 21 | 113 | 0.0 | 0.0 | 0.00 | 0.00 | 0.00 | 53 | 1014.2 |
| 20260509180007 | 22 | 113 | 0.0 | 0.0 | 0.00 | 0.00 | 0.00 | 52 | 1014.2 |
| 20260509174505 | 22 | 113 | 0.0 | 1.6 | 0.00 | 0.00 | 0.00 | 50 | 1014.2 |
| 20260509173004 | 23 | 108 | 0.0 | 1.6 | 0.00 | 0.00 | 0.00 | 50 | 1014.1 |
| 20260509171513 | 23 | 105 | 0.0 | 1.6 | 0.00 | 0.00 | 0.00 | 48 | 1013.9 |
| 20260509170009 | 23 | 105 | 0.0 | 1.6 | 0.00 | 0.00 | 0.00 | 48 | 1013.9 |
| 20260509164502 | 23 | 109 | 0.0 | 1.6 | 0.00 | 0.00 | 0.00 | 46 | 1014.0 |
| 20260509163005 | 24 | 96 | 0.0 | 1.6 | 0.00 | 0.00 | 0.00 | 46 | 1014.2 |
| 20260509161602 | 24 | 96 | 0.0 | 1.6 | 0.00 | 0.00 | 0.00 | 46 | 1014.2 |
| 20260509160059 | 25 | 154 | 0.0 | 3.2 | 0.00 | 0.00 | 0.00 | 44 | 1014.5 |
| 20260509154600 | 25 | 98 | 0.0 | 1.6 | 0.00 | 0.00 | 0.00 | 44 | 1014.5 |
| 20260509153101 | 26 | 98 | 0.0 | 1.6 | 0.00 | 0.00 | 0.00 | 42 | 1014.5 |
| 20260509151600 | 26 | 122 | 0.0 | 1.6 | 0.00 | 0.00 | 0.00 | 40 | 1014.5 |
| 20260509150055 | 27 | 79 | 0.0 | 1.6 | 0.00 | 0.00 | 0.00 | 38 | 1014.6 |
| 20260509144552 | 27 | 243 | 0.0 | 1.6 | 0.00 | 0.00 | 0.00 | 39 | 1014.8 |
| 20260509143054 | 26 | 71 | 0.0 | 8.0 | 0.00 | 0.00 | 0.00 | 37 | 1015.0 |
| 20260509141548 | 27 | 85 | 0.0 | 3.2 | 0.00 | 0.00 | 0.00 | 39 | 1015.3 |
| 20260509140056 | 27 | 77 | 0.0 | 1.6 | 0.00 | 0.00 | 0.00 | 37 | 1015.5 |
| 20260509134607 | 26 | 86 | 0.0 | 3.2 | 0.00 | 0.00 | 0.00 | 39 | 1015.7 |
| 20260509133042 | 25 | 245 | 0.0 | 4.8 | 0.00 | 0.00 | 0.00 | 41 | 1016.0 |
| 20260509131549 | 26 | 70 | 0.0 | 4.8 | 0.00 | 0.00 | 0.00 | 40 | 1016.1 |